When you browse on this site, cookies collect data to enhance your experience and personalize the content and advertising you see.
Visit our Privacy Policy to learn more. By continuing to use the site, you agree to this use of cookies and data.
  • In Romania
  • List of Countries
  • For 7 days
  • Water Temperature
  • Satellite Maps
  • Weather Map
  • Weather Widgets
  • user-avatar
    Login

    Hourly Weather Shkoder

    Today, 22 March, Friday

    Time Temperature Precipitation Wind Pressure Humidity
    00:00 +8°C° 0 mm 4 mps 748 mmHg 64%
    01:00 +8°C° 0 mm 4 mps 748 mmHg 62%
    02:00 +8°C° 0 mm 4 mps 748 mmHg 62%
    03:00 +7°C° 0 mm 4 mps 748 mmHg 62%
    04:00 +7°C° 0 mm 4 mps 748 mmHg 63%
    05:00 +7°C° 0 mm 4 mps 748 mmHg 62%
    06:00 +8°C° 0 mm 4 mps 748 mmHg 61%
    07:00 +10°C° 0 mm 4 mps 748 mmHg 59%
    08:00 +12°C° 0 mm 4 mps 748 mmHg 53%
    09:00 +13°C° 0 mm 4 mps 748 mmHg 47%
    10:00 +16°C° 0 mm 3 mps 748 mmHg 41%
    11:00 +17°C° 0 mm 3 mps 747 mmHg 39%
    12:00 +18°C° 0 mm 3 mps 747 mmHg 36%
    13:00 +19°C° 0 mm 3 mps 746 mmHg 33%
    14:00 +19°C° 0 mm 3 mps 746 mmHg 34%
    15:00 +19°C° 0 mm 3 mps 746 mmHg 34%
    16:00 +19°C° 0 mm 3 mps 745 mmHg 34%
    17:00 +17°C° 0 mm 3 mps 745 mmHg 38%
    18:00 +14°C° 0 mm 3 mps 746 mmHg 43%
    19:00 +12°C° 0 mm 3 mps 746 mmHg 47%
    20:00 +12°C° 0 mm 3 mps 746 mmHg 48%
    21:00 +11°C° 0 mm 3 mps 746 mmHg 50%
    22:00 +11°C° 0 mm 3 mps 746 mmHg 51%
    23:00 +10°C° 0 mm 4 mps 746 mmHg 52%

    Tomorrow, 23 March, Saturday

    Time Temperature Precipitation Wind Pressure Humidity
    00:00 +10°C° 0 mm 4 mps 746 mmHg 53%
    01:00 +10°C° 0 mm 4 mps 746 mmHg 54%
    02:00 +8°C° 0 mm 4 mps 746 mmHg 54%
    03:00 +8°C° 0 mm 4 mps 746 mmHg 55%
    04:00 +8°C° 0 mm 4 mps 745 mmHg 56%
    05:00 +9°C° 0 mm 3 mps 746 mmHg 56%
    06:00 +10°C° 0 mm 3 mps 746 mmHg 57%
    07:00 +10°C° 0 mm 3 mps 746 mmHg 57%
    08:00 +12°C° 0 mm 3 mps 745 mmHg 51%
    09:00 +14°C° 0 mm 3 mps 745 mmHg 46%
    10:00 +17°C° 0 mm 3 mps 745 mmHg 40%
    11:00 +18°C° 0 mm 3 mps 745 mmHg 38%
    12:00 +19°C° 0 mm 2 mps 744 mmHg 36%
    13:00 +20°C° 0 mm 2 mps 744 mmHg 35%
    14:00 +20°C° 0 mm 2 mps 744 mmHg 36%
    15:00 +20°C° 0 mm 2 mps 744 mmHg 38%
    16:00 +20°C° 0 mm 2 mps 743 mmHg 39%
    17:00 +18°C° 0 mm 2 mps 743 mmHg 45%
    18:00 +17°C° 0 mm 2 mps 744 mmHg 50%
    19:00 +15°C° 0 mm 2 mps 744 mmHg 56%
    20:00 +13°C° 0 mm 3 mps 744 mmHg 59%
    21:00 +13°C° 0 mm 3 mps 744 mmHg 61%
    22:00 +12°C° 0 mm 3 mps 745 mmHg 64%
    23:00 +12°C° 0 mm 3 mps 744 mmHg 67%

    Day after tomorrow, 24 March, Sunday

    Time Temperature Precipitation Wind Pressure Humidity
    00:00 +11°C° 0 mm 3 mps 744 mmHg 69%
    01:00 +11°C° 0 mm 3 mps 744 mmHg 72%
    02:00 +11°C° 0 mm 3 mps 744 mmHg 72%
    03:00 +10°C° 0 mm 3 mps 744 mmHg 72%
    04:00 +10°C° 0 mm 3 mps 744 mmHg 72%
    05:00 +10°C° 0 mm 3 mps 744 mmHg 69%
    06:00 +11°C° 0 mm 3 mps 744 mmHg 67%
    07:00 +11°C° 0 mm 3 mps 744 mmHg 64%
    08:00 +13°C° 0 mm 3 mps 744 mmHg 55%
    09:00 +16°C° 0 mm 3 mps 744 mmHg 46%
    10:00 +18°C° 0 mm 2 mps 744 mmHg 36%
    11:00 +19°C° 0 mm 2 mps 744 mmHg 34%
    12:00 +20°C° 0 mm 2 mps 743 mmHg 32%
    13:00 +22°C° 0 mm 1 mps 743 mmHg 30%
    14:00 +21°C° 0 mm 2 mps 743 mmHg 32%
    15:00 +20°C° 0 mm 2 mps 742 mmHg 34%
    16:00 +20°C° 0 mm 2 mps 742 mmHg 36%
    17:00 +18°C° 0 mm 2 mps 742 mmHg 42%
    18:00 +18°C° 0 mm 1 mps 742 mmHg 48%
    19:00 +15°C° 0 mm 1 mps 742 mmHg 54%
    20:00 +14°C° 0 mm 1 mps 742 mmHg 52%
    21:00 +14°C° 0 mm 2 mps 743 mmHg 51%
    22:00 +14°C° 0 mm 2 mps 743 mmHg 50%
    23:00 +13°C° 0 mm 2 mps 743 mmHg 50%

    25 March, Monday

    Time Temperature Precipitation Wind Pressure Humidity
    00:00 +13°C° 0 mm 2 mps 743 mmHg 49%
    01:00 +13°C° 0 mm 2 mps 742 mmHg 49%
    02:00 +12°C° 0 mm 2 mps 742 mmHg 49%
    03:00 +12°C° 0 mm 2 mps 742 mmHg 50%
    04:00 +12°C° 0 mm 2 mps 742 mmHg 50%
    05:00 +12°C° 0 mm 2 mps 742 mmHg 51%
    06:00 +13°C° 0 mm 2 mps 742 mmHg 52%
    07:00 +13°C° 0 mm 2 mps 742 mmHg 53%
    08:00 +15°C° 0 mm 1 mps 742 mmHg 47%
    09:00 +18°C° 0 mm 1 mps 742 mmHg 42%
    10:00 +20°C° 0 mm 1 mps 741 mmHg 36%
    11:00 +20°C° 0 mm 1 mps 741 mmHg 36%
    12:00 +20°C° 0 mm 2 mps 740 mmHg 36%
    13:00 +20°C° 0 mm 2 mps 740 mmHg 36%
    14:00 +20°C° 0 mm 2 mps 740 mmHg 39%
    15:00 +19°C° 0 mm 2 mps 739 mmHg 43%
    16:00 +19°C° 0 mm 2 mps 739 mmHg 46%
    17:00 +17°C° 0 mm 2 mps 739 mmHg 55%
    18:00 +15°C° 0 mm 1 mps 739 mmHg 65%
    19:00 +12°C° 0 mm 0 mps 739 mmHg 74%
    20:00 +12°C° 0 mm 0 mps 739 mmHg 76%
    21:00 +12°C° 0 mm 0 mps 739 mmHg 77%
    22:00 +12°C° 0 mm 1 mps 739 mmHg 79%
    23:00 +12°C° 0 mm 1 mps 739 mmHg 79%

    26 March, Tuesday

    Time Temperature Precipitation Wind Pressure Humidity
    00:00 +11°C° 0 mm 1 mps 739 mmHg 79%
    01:00 +10°C° 0 mm 0 mps 738 mmHg 78%
    02:00 +11°C° 0 mm 1 mps 739 mmHg 78%
    03:00 +10°C° 0 mm 2 mps 739 mmHg 78%
    04:00 +9°C° 0 mm 2 mps 739 mmHg 78%
    05:00 +9°C° 0.1 mm 3 mps 739 mmHg 74%
    06:00 +8°C° 0.1 mm 4 mps 739 mmHg 70%
    07:00 +8°C° 0.1 mm 4 mps 740 mmHg 65%
    08:00 +9°C° 0 mm 5 mps 740 mmHg 62%
    09:00 +9°C° 0 mm 5 mps 740 mmHg 58%
    10:00 +10°C° 0 mm 6 mps 740 mmHg 55%
    11:00 +9°C° 0.5 mm 6 mps 740 mmHg 58%
    12:00 +6°C° 0.5 mm 7 mps 740 mmHg 61%
    13:00 +5°C° 0.5 mm 7 mps 740 mmHg 64%
    14:00 +4°C° 0.7 mm 7 mps 740 mmHg 66%
    15:00 +4°C° 0.7 mm 6 mps 740 mmHg 68%
    16:00 +4°C° 0.7 mm 6 mps 739 mmHg 70%
    17:00 +3°C° 0.1 mm 6 mps 740 mmHg 69%
    18:00 +3°C° 0.1 mm 7 mps 740 mmHg 68%
    19:00 +3°C° 0.1 mm 7 mps 740 mmHg 67%
    20:00 +3°C° 0 mm 7 mps 741 mmHg 66%
    21:00 +3°C° 0 mm 7 mps 741 mmHg 65%
    22:00 +3°C° 0 mm 7 mps 741 mmHg 64%
    23:00 +3°C° 0 mm 7 mps 741 mmHg 63%

    27 March, Wednesday

    Time Temperature Precipitation Wind Pressure Humidity
    00:00 +4°C° 0 mm 7 mps 741 mmHg 62%
    01:00 +4°C° 0 mm 8 mps 741 mmHg 60%
    02:00 +3°C° 0 mm 7 mps 741 mmHg 61%
    03:00 +3°C° 0 mm 7 mps 742 mmHg 61%
    04:00 +3°C° 0 mm 7 mps 742 mmHg 61%
    05:00 +3°C° 0 mm 6 mps 742 mmHg 61%
    06:00 +4°C° 0 mm 6 mps 743 mmHg 62%
    07:00 +4°C° 0 mm 6 mps 743 mmHg 62%
    08:00 +5°C° 0 mm 6 mps 744 mmHg 59%
    09:00 +8°C° 0 mm 7 mps 744 mmHg 57%
    10:00 +9°C° 0 mm 7 mps 745 mmHg 54%
    11:00 +10°C° 0 mm 7 mps 745 mmHg 52%
    12:00 +10°C° 0 mm 7 mps 745 mmHg 50%
    13:00 +11°C° 0 mm 6 mps 745 mmHg 48%
    14:00 +11°C° 0 mm 6 mps 745 mmHg 49%
    15:00 +10°C° 0 mm 6 mps 745 mmHg 49%
    16:00 +10°C° 0 mm 6 mps 745 mmHg 49%
    17:00 +9°C° 0 mm 5 mps 745 mmHg 53%
    18:00 +8°C° 0 mm 5 mps 746 mmHg 58%
    19:00 +6°C° 0 mm 4 mps 746 mmHg 62%
    20:00 +6°C° 0 mm 4 mps 747 mmHg 63%
    21:00 +6°C° 0 mm 4 mps 747 mmHg 64%
    22:00 +5°C° 0 mm 4 mps 747 mmHg 64%
    23:00 +5°C° 0 mm 4 mps 747 mmHg 65%
    Show more